DL1GHN-6 Weather Reports


time (UTC)temp
C
wind
direction
speed
KPH
gust
KPH
rain 1hr
cm
rain 24hr
cm
rain mn
cm
humidity
%
barometer
mb
20260831010018 18 238 1.6 4.8 0.15 0.51 0.30 88 1015.0
20260831005519 18 219 1.6 6.4 0.15 0.51 0.30 88 1014.9
20260831005019 18 167 1.6 6.4 0.15 0.51 0.30 88 1014.7
20260831004519 18 163 3.2 6.4 0.15 0.48 0.28 88 1015.0
20260831004019 18 240 0.0 1.6 0.15 0.48 0.28 87 1014.8
20260831003518 18 217 0.0 3.2 0.18 0.48 0.28 88 1014.8
20260831003019 18 117 1.6 4.8 0.15 0.46 0.25 87 1014.5
20260831002520 18 146 3.2 6.4 0.15 0.43 0.23 87 1014.7
20260831002019 18 141 1.6 4.8 0.15 0.43 0.23 87 1014.7
20260831001520 18 170 3.2 6.4 0.13 0.41 0.20 87 1015.1
20260831001018 18 160 4.8 8.0 0.10 0.38 0.18 87 1015.1
20260831000520 18 177 6.4 11.3 0.08 0.36 0.15 87 1015.2
20260831000019 18 182 6.4 8.0 0.08 0.36 0.15 87 1015.2
20260830235518 18 157 6.4 14.5 0.05 0.33 0.15 87 1015.2
20260830235020 18 195 6.4 17.7 0.05 0.33 0.15 86 1015.2
20260830234519 18 229 8.0 16.1 0.05 0.33 0.15 86 1015.4
20260830234019 18 200 6.4 11.3 0.05 0.33 0.13 86 1015.4
20260830233520 18 215 6.4 14.5 0.05 0.30 0.10 86 1015.3
20260830233019 18 218 9.7 14.5 0.05 0.30 0.10 86 1015.0
20260830232519 18 229 3.2 4.8 0.08 0.28 0.08 85 1014.8
20260830232019 18 130 3.2 4.8 0.08 0.28 0.08 85 1014.2
20260830231518 18 131 1.6 4.8 0.08 0.28 0.08 85 1014.0
20260830231018 18 186 0.0 3.2 0.08 0.28 0.08 85 1013.9
20260830230519 18 127 1.6 4.8 0.08 0.28 0.08 84 1013.7
20260830230020 18 140 1.6 4.8 0.08 0.28 0.08 84 1014.0
20260830225521 18 191 1.6 4.8 0.08 0.28 0.08 83 1013.9
20260830225020 19 142 3.2 8.0 0.08 0.28 0.08 83 1014.0
20260830224522 19 109 3.2 8.0 0.08 0.28 0.08 82 1014.2
20260830224021 19 189 6.4 14.5 0.05 0.25 0.05 82 1014.5
20260830223520 19 177 8.0 22.5 0.05 0.25 0.05 82 1014.4
20260830223022 18 206 6.4 16.1 0.05 0.23 0.05 82 1014.4
20260830222521 18 254 11.3 20.9 0.00 0.20 0.00 82 1014.1
20260830222022 17 269 4.8 8.0 0.00 0.20 0.00 83 1013.2
20260830221522 17 286 4.8 6.4 0.00 0.20 0.00 82 1012.8
20260830221022 17 242 0.0 1.6 0.00 0.20 0.00 81 1012.7
20260830220522 17 242 0.0 1.6 0.00 0.20 0.00 81 1012.6
20260830220022 17 242 0.0 1.6 0.00 0.20 0.00 81 1012.6
20260830215521 17 242 0.0 1.6 0.00 0.20 0.20 81 1012.6
20260830215022 17 244 1.6 3.2 0.00 0.20 0.20 81 1012.6
20260830214521 17 94 0.0 0.0 0.00 0.20 0.20 80 1012.5
20260830214021 17 94 1.6 3.2 0.00 0.20 0.20 80 1012.5
20260830213522 17 108 0.0 3.2 0.00 0.20 0.20 80 1012.6
20260830213020 17 136 3.2 3.2 0.00 0.20 0.20 80 1012.7
20260830212520 17 166 1.6 4.8 0.00 0.20 0.20 81 1012.8
20260830212021 17 158 1.6 3.2 0.00 0.20 0.20 81 1012.7
20260830211520 17 155 3.2 6.4 0.00 0.20 0.20 81 1012.7
20260830211021 17 156 4.8 6.4 0.00 0.20 0.20 81 1012.8
20260830210520 17 138 3.2 4.8 0.00 0.20 0.20 81 1012.8
20260830210020 17 106 1.6 1.6 0.00 0.20 0.20 80 1012.9
20260830205521 17 89 0.0 0.0 0.00 0.20 0.20 80 1013.0
20260830205020 17 89 0.0 1.6 0.00 0.20 0.20 80 1013.0
20260830204520 17 89 0.0 1.6 0.00 0.20 0.20 80 1013.0
20260830204022 17 80 1.6 3.2 0.00 0.20 0.20 80 1013.0
20260830203520 17 56 1.6 1.6 0.00 0.20 0.20 79 1013.0
20260830203021 17 63 0.0 1.6 0.00 0.20 0.20 79 1013.0
20260830202521 18 66 0.0 1.6 0.00 0.20 0.20 78 1013.0
20260830202022 18 66 1.6 1.6 0.00 0.20 0.20 78 1013.0
20260830201522 18 53 1.6 1.6 0.00 0.20 0.20 77 1013.0
20260830201021 18 103 0.0 1.6 0.00 0.20 0.20 77 1013.0
20260830200522 18 117 0.0 0.0 0.00 0.20 0.20 76 1012.9
20260830200022 18 117 0.0 1.6 0.00 0.20 0.20 76 1013.0
20260830195520 18 117 0.0 1.6 0.00 0.23 0.20 75 1013.0
20260830195021 18 138 0.0 0.0 0.00 0.23 0.20 75 1013.1
20260830194520 19 138 0.0 3.2 0.00 0.23 0.20 75 1013.1
20260830194020 19 139 1.6 3.2 0.00 0.23 0.20 74 1013.1
20260830193521 19 138 1.6 4.8 0.00 0.23 0.20 74 1013.1
20260830193020 19 148 0.0 3.2 0.00 0.23 0.20 73 1013.1
20260830192521 20 142 0.0 3.2 0.00 0.23 0.20 73 1013.0
20260830192020 20 142 1.6 3.2 0.00 0.23 0.20 73 1013.0
20260830191520 20 131 1.6 3.2 0.00 0.23 0.20 72 1013.0
20260830191021 20 99 3.2 4.8 0.00 0.23 0.20 71 1013.0
20260830190521 20 142 1.6 3.2 0.00 0.23 0.20 70 1013.0
20260830190020 20 147 0.0 1.6 0.00 0.23 0.20 70 1013.0
20260830185521 21 147 0.0 1.6 0.00 0.23 0.20 69 1013.1
20260830185020 21 147 0.0 3.2 0.00 0.23 0.20 69 1013.0
20260830184522 21 141 1.6 3.2 0.00 0.23 0.20 69 1013.0
20260830184021 21 127 0.0 1.6 0.00 0.23 0.20 68 1013.0
20260830183521 21 127 1.6 1.6 0.00 0.23 0.20 68 1013.0
20260830183021 22 127 0.0 1.6 0.00 0.23 0.20 67 1012.9
20260830182521 22 127 0.0 1.6 0.00 0.23 0.20 67 1013.0
20260830182021 22 127 0.0 3.2 0.00 0.23 0.20 66 1013.0
20260830181522 22 110 3.2 4.8 0.00 0.23 0.20 65 1013.0
20260830181021 22 178 1.6 3.2 0.00 0.23 0.20 65 1013.0
20260830180521 22 144 0.0 3.2 0.00 0.23 0.20 64 1013.0
20260830180021 23 151 0.0 3.2 0.00 0.23 0.20 64 1013.0
20260830175520 23 163 0.0 1.6 0.00 0.23 0.20 63 1013.1
20260830175021 23 141 0.0 3.2 0.00 0.23 0.20 63 1013.1
20260830174521 24 135 0.0 3.2 0.00 0.23 0.20 62 1013.1
20260830174021 24 89 0.0 1.6 0.00 0.23 0.20 60 1013.1
20260830173521 25 89 0.0 1.6 0.00 0.23 0.20 59 1013.1
20260830173020 25 88 0.0 3.2 0.00 0.23 0.20 59 1013.1
20260830172522 25 140 1.6 3.2 0.00 0.23 0.20 58 1013.1
20260830172020 25 285 0.0 1.6 0.00 0.23 0.20 56 1013.1
20260830171521 25 269 0.0 3.2 0.00 0.23 0.20 54 1013.1
20260830171022 26 279 1.6 3.2 0.00 0.23 0.20 52 1013.2
20260830170522 26 317 1.6 4.8 0.00 0.23 0.20 52 1013.2
20260830170022 26 302 3.2 6.4 0.00 0.23 0.20 51 1013.2
20260830165522 26 313 1.6 4.8 0.00 0.23 0.20 52 1013.1
20260830165022 26 306 3.2 6.4 0.00 0.23 0.20 50 1013.1
20260830164520 26 315 3.2 9.7 0.00 0.23 0.20 51 1013.1
20260830164020 27 326 3.2 9.7 0.00 0.23 0.20 48 1013.1
20260830163522 27 308 4.8 11.3 0.00 0.23 0.20 48 1013.2
20260830163020 27 302 6.4 12.9 0.00 0.23 0.20 50 1013.3
20260830162521 27 312 4.8 11.3 0.00 0.23 0.20 48 1013.3
20260830162020 28 283 6.4 11.3 0.00 0.23 0.20 47 1013.3
20260830161520 28 279 6.4 9.7 0.00 0.23 0.20 46 1013.3
20260830161020 28 290 3.2 9.7 0.00 0.23 0.20 45 1013.4
20260830160520 28 221 1.6 12.9 0.00 0.23 0.20 46 1013.3
20260830160021 28 271 9.7 16.1 0.00 0.23 0.20 46 1013.3
20260830155521 29 284 3.2 11.3 0.00 0.23 0.20 46 1013.3
20260830155020 29 235 3.2 6.4 0.00 0.23 0.20 50 1013.4
20260830154522 28 355 3.2 12.9 0.00 0.23 0.20 47 1013.3
20260830154021 28 206 4.8 14.5 0.00 0.23 0.20 47 1013.4
20260830153522 29 269 6.4 11.3 0.00 0.23 0.20 47 1013.5
20260830153022 29 325 6.4 11.3 0.00 0.23 0.20 49 1013.6
20260830152521 28 242 3.2 14.5 0.00 0.23 0.20 45 1013.6
20260830152022 28 236 8.0 16.1 0.00 0.23 0.20 49 1013.7
20260830151520 28 258 9.7 12.9 0.00 0.23 0.20 50 1013.7
20260830151020 28 250 6.4 11.3 0.00 0.23 0.20 49 1013.7
20260830150521 28 182 6.4 14.5 0.00 0.23 0.20 50 1013.7
20260830150020 28 325 1.6 14.5 0.00 0.23 0.20 48 1013.7
20260830145521 28 300 4.8 11.3 0.00 0.23 0.20 49 1013.8
20260830145020 28 260 3.2 11.3 0.00 0.23 0.20 53 1013.8
20260830144520 28 303 9.7 17.7 0.00 0.23 0.20 52 1013.9
20260830144022 28 285 9.7 14.5 0.00 0.23 0.20 53 1014.0
20260830143520 28 174 3.2 8.0 0.00 0.23 0.20 50 1014.1
20260830143021 28 246 4.8 9.7 0.00 0.23 0.20 52 1014.1
20260830142522 28 192 6.4 11.3 0.00 0.23 0.20 55 1014.1
20260830142022 27 234 6.4 14.5 0.00 0.23 0.20 51 1014.2
20260830141521 27 225 12.9 17.7 0.00 0.23 0.20 52 1014.3
20260830141020 27 263 4.8 16.1 0.00 0.23 0.20 52 1014.2
20260830140522 27 264 4.8 12.9 0.00 0.23 0.20 54 1014.3
20260830140021 27 254 8.0 17.7 0.00 0.23 0.20 53 1014.3
20260830135521 27 183 4.8 11.3 0.00 0.23 0.20 55 1014.4
20260830135020 27 214 6.4 11.3 0.00 0.23 0.20 57 1014.4
20260830134521 27 237 9.7 16.1 0.00 0.23 0.20 56 1014.4
20260830134020 27 257 8.0 16.1 0.00 0.23 0.20 58 1014.5
20260830133520 27 306 6.4 8.0 0.00 0.23 0.20 57 1014.6
20260830133021 27 198 11.3 14.5 0.00 0.23 0.20 59 1014.6
20260830132522 27 175 3.2 9.7 0.00 0.23 0.20 60 1014.6
20260830132020 27 300 3.2 11.3 0.00 0.23 0.20 63 1014.7
20260830131522 26 294 3.2 6.4 0.00 0.23 0.20 62 1014.8
20260830131022 26 173 3.2 4.8 0.00 0.23 0.20 61 1014.9
20260830130521 27 282 3.2 9.7 0.00 0.23 0.20 60 1014.9
20260830130021 27 300 3.2 9.7 0.00 0.23 0.20 63 1014.9
20260830125522 27 310 3.2 6.4 0.00 0.23 0.20 61 1014.9
20260830125022 26 327 6.4 11.3 0.00 0.23 0.20 63 1015.0
20260830124520 26 315 4.8 12.9 0.00 0.23 0.20 63 1015.1
20260830124020 25 236 1.6 6.4 0.00 0.23 0.20 69 1015.2
20260830123521 25 169 1.6 4.8 0.00 0.23 0.20 67 1015.2
20260830123020 25 93 3.2 6.4 0.00 0.23 0.20 65 1015.2
20260830122521 25 196 3.2 6.4 0.00 0.23 0.20 68 1015.2
20260830122020 25 159 3.2 6.4 0.00 0.23 0.20 71 1015.3
20260830121520 25 192 4.8 8.0 0.00 0.23 0.20 66 1015.3
20260830121020 25 221 3.2 8.0 0.00 0.23 0.20 69 1015.3
20260830120520 24 99 3.2 4.8 0.00 0.23 0.20 72 1015.3
20260830120020 24 15 1.6 3.2 0.00 0.23 0.20 73 1015.4
20260830115522 23 161 1.6 6.4 0.00 0.23 0.20 75 1015.4
20260830115022 23 72 1.6 9.7 0.00 0.23 0.20 77 1015.6
20260830114521 23 302 6.4 8.0 0.00 0.23 0.20 80 1015.7
20260830114022 22 79 1.6 3.2 0.00 0.23 0.20 81 1015.6
20260830113521 22 337 1.6 4.8 0.00 0.23 0.20 79 1015.7
20260830113021 22 171 1.6 4.8 0.00 0.23 0.20 85 1015.7
20260830112521 21 99 1.6 4.8 0.00 0.23 0.20 82 1015.8
20260830112022 21 209 0.0 4.8 0.00 0.23 0.20 81 1015.8
20260830111521 21 175 1.6 3.2 0.00 0.23 0.20 81 1015.8
20260830111021 21 138 3.2 8.0 0.00 0.23 0.20 84 1015.9
20260830110520 21 346 1.6 3.2 0.00 0.23 0.20 85 1015.9
20260830110021 21 159 1.6 6.4 0.00 0.23 0.20 84 1015.9
20260830105520 21 182 1.6 3.2 0.00 0.23 0.20 89 1016.0
20260830105021 21 82 1.6 4.8 0.00 0.23 0.20 88 1016.0
20260830104521 20 73 3.2 6.4 0.03 0.23 0.20 87 1016.2
20260830104022 20 330 1.6 4.8 0.03 0.23 0.20 86 1016.3
20260830103521 20 277 1.6 3.2 0.03 0.23 0.20 86 1016.4
20260830103021 20 309 3.2 4.8 0.03 0.23 0.20 86 1016.3
20260830102521 20 321 0.0 3.2 0.03 0.23 0.20 86 1016.2
20260830102021 20 20 1.6 3.2 0.03 0.23 0.20 87 1016.2
20260830101521 20 75 1.6 4.8 0.03 0.23 0.20 88 1016.2
20260830101021 20 63 0.0 4.8 0.03 0.23 0.20 88 1016.2
20260830100522 20 86 1.6 4.8 0.03 0.23 0.20 88 1016.2
20260830100020 20 62 1.6 3.2 0.03 0.23 0.20 88 1016.3
20260830095521 20 109 0.0 3.2 0.03 0.23 0.20 88 1016.3
20260830095020 20 128 1.6 4.8 0.03 0.23 0.20 88 1016.4
20260830094520 20 151 3.2 4.8 0.00 0.23 0.18 87 1016.4
20260830094021 20 188 0.0 3.2 0.00 0.23 0.18 88 1016.4
20260830093521 20 147 1.6 4.8 0.00 0.23 0.18 88 1016.3
20260830093021 20 112 0.0 3.2 0.00 0.23 0.18 88 1016.3
20260830092521 20 130 1.6 3.2 0.00 0.23 0.18 88 1016.3
20260830092020 20 125 0.0 1.6 0.00 0.23 0.18 88 1016.3
20260830091520 20 142 1.6 3.2 0.00 0.23 0.18 88 1016.2
20260830091021 20 114 1.6 3.2 0.00 0.23 0.18 88 1016.2
20260830090521 19 121 1.6 3.2 0.00 0.23 0.18 88 1016.2
20260830090021 20 148 1.6 4.8 0.00 0.23 0.18 88 1016.3
20260830085521 20 101 1.6 3.2 0.00 0.23 0.18 88 1016.2
20260830085021 19 119 1.6 4.8 0.00 0.23 0.18 88 1016.2
20260830084522 19 119 1.6 6.4 0.00 0.23 0.18 88 1016.2
20260830084020 19 144 1.6 3.2 0.00 0.23 0.18 87 1016.2
20260830083522 19 186 1.6 3.2 0.00 0.23 0.18 87 1016.2
20260830083021 19 153 1.6 3.2 0.03 0.23 0.18 87 1016.2
20260830082521 19 96 0.0 3.2 0.03 0.23 0.18 87 1016.2
20260830082021 19 77 1.6 3.2 0.03 0.23 0.18 88 1016.2
20260830081521 19 183 0.0 1.6 0.03 0.23 0.18 87 1016.3
20260830081021 19 130 1.6 3.2 0.03 0.23 0.18 87 1016.3
20260830080520 19 132 1.6 3.2 0.05 0.23 0.18 87 1016.3
20260830080021 19 134 1.6 3.2 0.05 0.23 0.18 87 1016.3
20260830075520 19 67 0.0 3.2 0.08 0.23 0.18 87 1016.3
20260830075021 19 329 0.0 4.8 0.10 0.23 0.18 87 1016.3
20260830074521 19 62 1.6 3.2 0.10 0.23 0.18 87 1016.2
20260830074022 18 348 0.0 4.8 0.13 0.23 0.18 87 1016.2
20260830073520 18 87 1.6 4.8 0.15 0.23 0.18 86 1016.1
20260830073022 18 127 1.6 3.2 0.15 0.20 0.15 86 1016.2
20260830072522 18 94 1.6 3.2 0.15 0.20 0.15 86 1016.2
20260830072022 18 109 1.6 4.8 0.15 0.20 0.15 86 1016.2
20260830071521 18 73 0.0 3.2 0.15 0.20 0.15 85 1016.2
20260830071020 19 103 1.6 4.8 0.15 0.20 0.15 85 1016.1
20260830070521 19 189 1.6 4.8 0.15 0.18 0.15 84 1016.1
20260830070021 19 229 1.6 4.8 0.13 0.15 0.13 84 1016.2
20260830065520 19 274 4.8 9.7 0.10 0.15 0.10 83 1016.2
20260830065021 19 205 6.4 9.7 0.08 0.13 0.08 83 1016.1
20260830064521 20 259 4.8 9.7 0.08 0.13 0.08 81 1016.1
20260830064020 20 248 3.2 9.7 0.05 0.10 0.05 80 1015.9
20260830063521 20 238 8.0 12.9 0.05 0.08 0.05 79 1015.9
20260830063021 20 234 4.8 12.9 0.03 0.05 0.03 77 1015.8
20260830062521 20 257 8.0 11.3 0.00 0.05 0.00 76 1015.6
20260830062021 20 198 1.6 14.5 0.00 0.05 0.00 74 1015.4
20260830061521 20 197 6.4 12.9 0.00 0.05 0.00 73 1015.3
20260830061021 20 188 6.4 12.9 0.00 0.05 0.00 73 1015.3
20260830060521 20 236 4.8 9.7 0.00 0.05 0.00 73 1015.2
20260830060020 20 163 8.0 12.9 0.00 0.05 0.00 73 1015.2
20260830055522 20 152 8.0 12.9 0.00 0.05 0.00 74 1015.3
20260830055021 20 180 8.0 11.3 0.00 0.05 0.00 74 1015.3
20260830054522 20 129 9.7 14.5 0.00 0.05 0.00 74 1015.3
20260830054021 20 214 6.4 11.3 0.00 0.05 0.00 75 1015.3
20260830053522 20 224 6.4 9.7 0.00 0.05 0.00 75 1015.2
20260830053022 20 165 4.8 9.7 0.00 0.05 0.00 75 1015.2
20260830052520 20 157 4.8 9.7 0.00 0.05 0.00 76 1015.3
20260830052022 20 154 4.8 9.7 0.00 0.05 0.00 76 1015.2
20260830051522 19 181 6.4 11.3 0.00 0.05 0.00 76 1015.2
20260830051021 19 204 4.8 9.7 0.00 0.05 0.00 76 1015.2
20260830050522 19 136 4.8 12.9 0.00 0.05 0.00 77 1015.3
20260830050021 19 215 4.8 6.4 0.00 0.05 0.00 77 1015.3
20260830045521 19 181 4.8 11.3 0.00 0.05 0.00 77 1015.4
20260830045021 19 200 3.2 6.4 0.00 0.05 0.00 77 1015.3
20260830044520 19 155 3.2 11.3 0.00 0.05 0.00 77 1015.2
20260830044020 19 163 3.2 6.4 0.00 0.05 0.00 76 1015.2
20260830043521 19 170 1.6 4.8 0.00 0.05 0.00 76 1015.2
20260830043020 19 203 3.2 6.4 0.00 0.05 0.00 76 1015.3
20260830042521 19 173 4.8 8.0 0.00 0.05 0.00 76 1015.2
20260830042020 19 198 4.8 8.0 0.00 0.05 0.00 76 1015.3
20260830041521 19 199 4.8 8.0 0.00 0.05 0.00 76 1015.2
20260830041020 19 165 4.8 8.0 0.00 0.05 0.00 76 1015.2
20260830040520 19 194 4.8 6.4 0.00 0.05 0.00 75 1015.2
20260830040020 19 173 4.8 8.0 0.00 0.05 0.00 75 1015.2
20260830035520 19 187 4.8 9.7 0.00 0.05 0.00 75 1015.3
20260830035020 20 155 4.8 8.0 0.00 0.05 0.00 74 1015.3
20260830034521 20 173 3.2 8.0 0.00 0.05 0.00 74 1015.3
20260830034021 20 167 4.8 11.3 0.00 0.05 0.00 74 1015.4
20260830033255 20 192 3.2 9.7 0.00 0.05 0.00 73 1015.4
20260830032755 20 153 4.8 12.9 0.00 0.05 0.00 72 1015.3
20260830032256 20 200 3.2 9.7 0.00 0.05 0.00 72 1015.3
20260830031755 20 229 6.4 9.7 0.00 0.05 0.00 71 1015.3
20260830031256 20 169 8.0 11.3 0.00 0.05 0.00 71 1015.3
20260830030755 20 224 4.8 12.9 0.00 0.05 0.00 70 1015.3
20260830030256 20 218 6.4 11.3 0.00 0.05 0.00 70 1015.3
20260830025757 20 188 4.8 14.5 0.00 0.05 0.00 70 1015.3
20260830025255 20 162 8.0 16.1 0.00 0.05 0.00 70 1015.3
20260830024757 20 219 8.0 14.5 0.00 0.05 0.00 70 1015.3
20260830024257 20 229 4.8 17.7 0.00 0.05 0.00 69 1015.2
20260830023755 20 228 3.2 14.5 0.00 0.05 0.00 69 1015.3
20260830023256 21 174 6.4 11.3 0.00 0.05 0.00 68 1015.2
20260830022757 21 209 4.8 12.9 0.00 0.05 0.00 68 1015.1
20260830022257 21 177 4.8 14.5 0.00 0.05 0.00 68 1015.1
20260830021757 21 163 4.8 11.3 0.00 0.05 0.00 68 1015.1
20260830021255 21 169 8.0 14.5 0.00 0.05 0.00 68 1015.2
20260830020756 21 146 6.4 11.3 0.00 0.05 0.00 68 1015.2
20260830020028 21 175 4.8 11.3 0.00 0.05 0.00 68 1015.3
20260830015528 21 159 6.4 12.9 0.00 0.05 0.00 68 1015.3
20260830015029 21 196 4.8 8.0 0.00 0.05 0.00 67 1015.3
20260830014528 21 163 3.2 11.3 0.00 0.05 0.00 67 1015.3
20260830014029 21 172 6.4 11.3 0.00 0.05 0.00 68 1015.2
20260830013529 21 154 3.2 9.7 0.00 0.05 0.00 68 1015.2
20260830013029 20 208 4.8 11.3 0.00 0.05 0.00 68 1015.1
20260830012529 20 201 4.8 9.7 0.00 0.05 0.00 68 1015.1
20260830012029 20 180 4.8 8.0 0.00 0.05 0.00 68 1015.1
20260830011529 20 221 3.2 8.0 0.00 0.05 0.00 69 1015.1
20260830011029 20 169 4.8 8.0 0.00 0.05 0.00 69 1015.0
20260830010528 20 174 1.6 4.8 0.00 0.05 0.00 68 1015.1